This is the latest recevied weather packets stored in our database for station/object N8BAP. If no packets are shown the sender has not sent any weather packets the latest 10 day(s).
| Time | Temp. | Humidity | Pressure | Rain* | Wind** | Luminosity | Snow |
|---|---|---|---|---|---|---|---|
| 1777752731 | 10.56° C | 44% | 1021.6 hPa | 0 mm | - | 206 W/m² | - |
| 1777752426 | 11.67° C | 42% | 1021.6 hPa | 0 mm | - | 167 W/m² | - |
| 1777752123 | 11.11° C | 49% | 1021.5 hPa | 0 mm | - | 780 W/m² | - |
| 1777751822 | 11.11° C | 45% | 1021.9 hPa | 0 mm | - | 302 W/m² | - |
| 1777751517 | 10.56° C | 41% | 1021.5 hPa | 0 mm | - | 269 W/m² | - |
| 1777751214 | 10.56° C | 41% | 1021.5 hPa | 0 mm | - | 736 W/m² | - |
| 1777750911 | 11.11° C | 41% | 1021.7 hPa | 0 mm | - | 394 W/m² | - |
| 1777750607 | 11.11° C | 46% | 1021.7 hPa | 0 mm | - | 797 W/m² | - |
| 1777750304 | 10.56° C | 42% | 1021.6 hPa | 0 mm | - | 723 W/m² | - |
| 1777750000 | 11.11° C | 43% | 1021.7 hPa | 0 mm | - | 233 W/m² | - |
| 1777749697 | 11.11° C | 43% | 1021.7 hPa | 0 mm | - | 374 W/m² | - |
| 1777749394 | 11.11° C | 46% | 1021.8 hPa | 0 mm | - | 284 W/m² | - |
| 1777749092 | 11.11° C | 49% | 1021.9 hPa | 0 mm | - | 865 W/m² | - |
| 1777748789 | 10° C | 44% | 1021.7 hPa | 0 mm | - | 857 W/m² | - |
| 1777748486 | 10° C | 43% | 1021.9 hPa | 0 mm | - | 269 W/m² | - |
| 1777748181 | 10.56° C | 43% | 1021.9 hPa | 0 mm | - | 242 W/m² | - |
| 1777747878 | 10° C | 46% | 1022.1 hPa | 0 mm | - | 656 W/m² | - |
| 1777747574 | 10.56° C | 47% | 1022.2 hPa | 0 mm | - | 237 W/m² | - |
| 1777747270 | 10.56° C | 43% | 1022.2 hPa | 0 mm | - | 817 W/m² | - |
| 1777746966 | 10.56° C | 51% | 1021.9 hPa | 0 mm | - | 862 W/m² | - |
| 1777746663 | 10.56° C | 50% | 1022.2 hPa | 0 mm | - | 881 W/m² | - |
| 1777746358 | 10.56° C | 50% | 1022.1 hPa | 0 mm | - | 358 W/m² | - |
| 1777746054 | 10° C | 48% | 1021.9 hPa | 0 mm | - | 821 W/m² | - |
| 1777745752 | 10.56° C | 44% | 1022.2 hPa | 0 mm | - | 215 W/m² | - |
| 1777745450 | 10.56° C | 48% | 1022.2 hPa | 0 mm | - | 228 W/m² | - |
* Rain latest hour (hover to see other rain measurements)
** Current wind speed in m/s (hover to see current wind gust speed)